Location: Bas Lanzent
(48.1360°N, 3.5871°W)
Time: 16:51:00
(UTC+00:00)

Cosmos 1500 Rocket - Pass Details

Date: 18 February 2020
Orbit: 602 x 632 km, 82.5° (Epoch: 30 March)

Event Time Altitude Azimuth Distance (km) Brightness Sun altitude
Rises 05:11:21 0° 350° (N) 2,931 7.0 -21.6°
Reaches altitude 10° 05:13:36 10° 351° (N) 2,015 6.1 -21.2°
Maximum altitude 05:18:05 87° 78° (ENE) 631 3.5 -20.5°
Drops below altitude 10° 05:22:29 10° 171° (S) 1,981 6.2 -19.7°
Sets 05:24:41 0° 172° (S) 2,876 7.0 -19.4°
